Tracking 25710 objects as of 6-Jul-2022
HD Live streaming from Space Station
objects crossing your sky now

STARLINK-3697

Track STARLINK-3697 now!
10-day predictions
STARLINK-3697 is classified as:


NORAD ID: 51962
Int'l Code: 2022-025G
Perigee: 545.6 km
Apogee: 548.0 km
Inclination: 53.2 °
Period: 95.4 minutes
Semi major axis: 6917 km
RCS: Unknown
Launch date: March 9, 2022
Source: United States (US)
Launch site: AIR FORCE EASTERN TEST RANGE (AFETR)
aabbcc
Your satellite tracking list
Your tracking list is empty




NASA's NSSDC Master Catalog

Two Line Element Set (TLE):
1 51962U 22025G   22186.91667824 -.00064388  00000-0 -40610-2 0  9990
2 51962  53.2132 297.0555 0001753  42.2803  40.2641 15.08865875 19605
Source of the keplerian elements: AFSPC